This demonstration page uses our WeatherBlox Daily Observations layout. Learn more.

Left ArrowRight Arrow

30.21309, -93.2044

Hourly Observations for February 22, 2022

Temp ( °F °C ) Dew Point ( °F °C ) Humidity (%) Winds ( mph kmh ) Pressure ( in mb ) Visibility ( mi km ) Precip ( " mm )
12:15 am 00:15 Cloudy 70 21.3 65 18.6 85 85 S 20 31 29.98 1015 10 16 0.00 0.00
12:35 am 00:35 Mostly Cloudy 69 20.5 65 18.5 88 88 S 15 24 29.97 1015 10 16 0.00 0.00
12:55 am 00:55 Mostly Cloudy 68 20.2 65 18.6 91 91 S 13 20 29.98 1015 10 16 0.00 0.00
1:15 am 01:15 Cloudy 69 20.3 66 18.9 92 92 S 13 20 29.98 1015 10 16 0.00 0.00
1:35 am 01:35 Cloudy 69 20.5 66 19.1 92 92 S 15 24 29.98 1015 10 16 0.00 0.00
1:55 am 01:55 Cloudy 69 20.6 67 19.2 92 92 S 15 24 29.97 1015 10 16 0.00 0.00
2:15 am 02:15 Mostly Cloudy 69 20.5 66 19.1 92 92 S 14 22 29.97 1015 10 16 0.00 0.00
2:35 am 02:35 Cloudy 69 20.3 66 19 92 92 S 15 24 29.96 1015 10 16 0.00 0.00
2:55 am 02:55 Cloudy 69 20.3 66 19.1 93 93 S 14 22 29.97 1015 10 16 0.00 0.00
3:15 am 03:15 Cloudy 69 20.5 67 19.2 92 92 S 16 26 29.97 1015 10 16 0.00 0.00
3:35 am 03:35 Cloudy 69 20.6 67 19.3 92 92 S 12 19 29.97 1015 10 16 0.00 0.00
3:55 am 03:55 Cloudy 69 20.6 67 19.3 92 92 S 13 20 29.97 1015 10 16 0.00 0.00
4:15 am 04:15 Cloudy 69 20.5 67 19.3 93 93 S 14 22 29.97 1015 10 16 0.00 0.00
4:35 am 04:35 Cloudy 69 20.3 66 19.1 93 93 S 12 19 29.97 1015 7 11 0.00 0.00
4:55 am 04:55 Cloudy 68 20.2 66 19.1 93 93 SSW 13 20 29.98 1015 7 11 0.00 0.00
5:15 am 05:15 Cloudy 68 20.1 66 19 93 93 S 9 15 29.98 1015 7 11 0.00 0.00
5:35 am 05:35 Cloudy 68 19.8 66 18.8 94 94 S 9 15 29.99 1016 7 11 0.00 0.00
6:00 am 06:00 Cloudy 68 20 66 19 94 94 SSW 12 19 30.00 1016 10 16 0.00 0.00
6:50 am 06:50 Cloudy 66 19 66 19 100 100 SSW 12 19 30.01 1016 10 16 0.00 0.00
7:53 am 07:53 Cloudy with Mist and Fog 66 19 66 19 100 100 S 6 9 30.04 1017 2 3 0.00 0.00
8:55 am 08:55 Mostly Cloudy with Mist and Fog 72 22 66 19 83 83 S 12 19 30.06 1018 6 10 0.00 0.00
9:31 am 09:31 Mostly Cloudy 75 24 68 20 78 78 SSW 13 20 30.08 1019 7 11 0.00 0.00
9:55 am 09:55 Mostly Cloudy 75 24 68 20 78 78 SSW 13 20 30.08 1019 7 11 0.00 0.00
10:55 am 10:55 Cloudy 75 24 68 20 78 78 SSW 20 31 30.07 1018 10 16 0.00 0.00
11:55 am 11:55 Cloudy 77 25 68 20 74 74 SSW 18 30 30.05 1018 10 16 0.00 0.00
12:45 pm 12:45 Cloudy 77 25 68 20 74 74 SSW 21 33 30.04 1017 10 16 0.00 0.00
1:50 pm 13:50 Cloudy 77 25 68 20 74 74 SSW 15 24 30.02 1017 10 16 0.00 0.00
2:55 pm 14:55 Cloudy 77 25 70 21 79 79 S 18 30 30.01 1016 10 16 0.00 0.00
3:54 pm 15:54 Mostly Cloudy with Mist and Fog 77 25 70 21 79 79 S 17 28 30.01 1016 5 8 0.00 0.00
4:53 pm 16:53 Cloudy with Mist and Fog 75 24 70 21 83 83 S 18 30 30.01 1016 5 8 0.00 0.00
5:55 pm 17:55 Mostly Cloudy with Mist and Fog 73 23 70 21 89 89 S 13 20 30.02 1017 5 8 0.00 0.00
6:24 pm 18:24 Cloudy 73 23 70 21 89 89 S 15 24 30.03 1017 10 16 0.00 0.00
6:51 pm 18:51 Cloudy 72 22 68 20 88 88 S 14 22 30.04 1017 10 16 0.00 0.00
7:55 pm 19:55 Cloudy 72 22 66 19 83 83 S 12 19 30.06 1018 10 16 0.00 0.00
8:50 pm 20:50 Mostly Cloudy 72 22 68 20 88 88 S 10 17 30.08 1019 10 16 0.00 0.00
9:47 pm 21:47 Mostly Cloudy 70 21 66 19 88 88 S 7 11 30.10 1019 10 16 0.00 0.00
10:15 pm 22:15 Cloudy 70 21.1 67 19.6 91 91 S 6 9 30.11 1020 10 16 0.00 0.00
10:35 pm 22:35 Cloudy 69 20.7 67 19.4 92 92 S 8 13 30.11 1020 10 16 0.00 0.00
10:55 pm 22:55 Cloudy 69 20.8 67 19.5 92 92 S 6 9 30.11 1020 10 16 0.00 0.00
11:15 pm 23:15 Cloudy 69 20.7 67 19.5 93 93 S 7 11 30.11 1020 10 16 0.00 0.00
11:35 pm 23:35 Cloudy 69 20.6 67 19.4 93 93 S 7 11 30.11 1020 7 11 0.00 0.00
11:55 pm 23:55 Cloudy 69 20.5 67 19.4 93 93 S 5 7 30.11 1020 7 11 0.00 0.00

Powered by AerisWeather